Regional Weather Roundup
Issued by NWS

Home | Current Version | Previous Version | Text Only | Print | Product List | Glossary On
Versions: 1 2 3 4 5 6 7 8 9 10 11 12 13 14 15 16 17 18 19 20 21 22 23 24 25 26 27 28 29 30 31 32 33 34 35 36 37 38 39 40 41 42 43 44 45 46 47 48 49 50
000
ASUS45 KSLC 230210
RWRUT

UTAH REGIONAL WEATHER ROUNDUP
NATIONAL WEATHER SERVICE SALT LAKE CITY UT
800 PM MDT MON SEP 22 2014

UTZ001>011-023>025-230300-

NORTHERN UTAH

CITY           SKY/WX    TMP DP  RH WIND       PRES   REMARKS
HILL AFB       CLOUDY    70  49  46 N2        30.13F
LOGAN          CLOUDY    69  52  54 CALM      30.11R
OGDEN          CLOUDY    71  50  47 CALM      30.11S
PROVO AIRPORT  PTCLDY    66  55  68 CALM      30.13R
SALT LAKE CITY CLOUDY    71  52  50 N6        30.09S
VERNAL         CLOUDY    65  54  67 N3        30.16R
WENDOVER       MOCLDY    70  54  56 CALM      30.09S
HEBER CITY     CLOUDY    61  50  67 S6        30.18R
WEST JORDAN    CLOUDY    70  52  52 SE3       30.13S

$$

UTZ012>022-026-027-230300-

SOUTHERN UTAH

CITY           SKY/WX    TMP DP  RH WIND       PRES   REMARKS
BRYCE CANYON   PTCLDY    56  39  53 W9        30.32R
CEDAR CITY     CLEAR     65  40  39 SW6       30.18R
MILFORD        CLEAR     68  51  54 SW9       30.12R
MOAB/CYNLANDS  CLEAR     72  52  49 NE5       30.09R
PRICE          MOCLDY    65  54  67 N5        30.20S
ST GEORGE      MOCLDY    84  41  21 W7        30.01S
KANAB            N/A     70  45  40 N7        30.17R

$$

REGIONAL REPORTS     COLORADO/ARIZONA

CITY           SKY/WX    TMP DP  RH WIND       PRES   REMARKS
CRAIG, CO      MOCLDY    59  48  67 SW7       30.21R
GRAND JUNCTION MOCLDY    66  54  65 NE5       30.13R
RIFLE          MOCLDY    65  52  62 S5        30.18R
MONTROSE       PTCLDY    65  56  72 SW5       30.21R
CORTEZ         CLEAR     62  50  64 VRB3      30.21R
PAGE, AZ       CLEAR     83  40  21 N5        30.09R
GRAND CANYON   PTCLDY    65  44  46 W3        30.26S
KINGMAN        CLEAR     77  36  22 SW7       30.05R
FLAGSTAFF      PTCLDY    62  48  60 CALM      30.30S

$$

REGIONAL REPORTS    NEVADA/IDAHO/WYOMING

CITY           SKY/WX    TMP DP  RH WIND       PRES   REMARKS
LAS VEGAS, NV  CLEAR     91  40  16 SE7       29.89R
ELY            PTCLDY    63  45  51 S8        30.20F
ELKO           PTCLDY    69  44  40 CALM      30.10S
POCATELLO, ID  PTCLDY    64  52  64 S7        30.11R
BURLEY         LGT RAIN  63  50  62 CALM      30.07S
EVANSTON, WY   PTCLDY    57  42  57 W6        30.26R
ROCK SPRINGS   MOCLDY    59  43  55 W12       30.22R

$$



USA.gov is the U.S. government's official web portal to all federal, state and local government web resources and services.